Location: Caltech
(34.1382°N, 118.1253°W)
Time: 03:15:02
(UTC-07:00)

Iridium 65 - Visible Passes

Search period start: 26 July 2016 00:00
Search period end: 05 August 2016 00:00
Orbit: 776 x 779 km, 86.4° (Epoch: 25 July)

Date Brightness Start Highest point End Pass type
(mag) Time Alt. Az. Time Alt. Az. Time Alt. Az.
26 Jul 5.5 04:40:39 10° S 04:45:52 86° W 04:51:07 10° N visible
27 Jul 6.4 04:07:27 10° SSE 04:12:25 48° E 04:17:25 10° NNE visible
28 Jul 7.5 03:34:55 10° SE 03:39:05 25° E 03:43:17 10° NNE visible
28 Jul 6.4 05:15:07 10° SW 05:19:37 29° W 05:24:10 10° NNW visible
29 Jul 8.2 03:03:38 10° ESE 03:05:53 13° E 03:08:07 10° NE visible
29 Jul 5.6 04:42:02 17° SSW 04:45:59 57° W 04:51:08 10° N visible
30 Jul 5.7 04:09:06 22° S 04:12:29 73° E 04:17:41 10° N visible
31 Jul 6.8 03:36:08 20° SE 03:39:05 37° E 03:43:50 10° NNE visible
31 Jul 6.9 05:16:39 12° WSW 05:19:52 20° W 05:23:39 10° NNW visible
01 Aug 7.8 03:03:09 14° ESE 03:05:47 19° E 03:09:26 10° NE visible
01 Aug 6.1 04:43:39 24° SW 04:46:09 38° W 04:51:00 10° NNW visible
02 Aug 5.4 04:10:39 40° SSW 04:12:35 75° W 04:17:48 10° N visible
03 Aug 6.0 03:37:37 41° SE 03:39:06 56° E 03:44:12 10° NNE visible
03 Aug 7.3 05:18:07 11° W 05:20:09 13° WNW 05:22:38 10° NW visible
04 Aug 7.1 03:04:34 26° ESE 03:05:46 29° E 03:10:10 10° NNE visible
04 Aug 6.6 04:45:04 23° WSW 04:46:22 26° W 04:50:41 10° NNW visible
